GEFSSE_500_meanwind_000.txt.gz
Wind_Speed
23 22 22 21 20 20 20 20 21 21 21 20 19 18 18 17 16 17 16 16 14 13 14 15 14 13 11 11 12 11 11 10 9 9 9 9 8 8 8 8 8 10 13
25 25 24 24 24 24 24 24 24 24 24 23 22 21 20 20 19 20 19 19 18 17 17 18 17 17 17 16 15 15 15 15 14 14 13 12 11 11 11 11 11 11 12
25 25 25 26 26 27 28 27 28 27 27 26 25 24 23 23 22 23 22 22 21 20 20 21 21 21 22 21 20 19 18 17 17 17 17 16 14 13 14 15 15 15 15
23 23 24 25 27 28 29 29 29 29 29 28 27 26 25 26 25 24 25 25 25 24 23 23 23 24 25 25 25 24 22 21 20 20 19 18 16 16 16 17 18 19 18
21 22 23 25 27 28 29 30 29 29 29 29 29 29 28 28 28 27 27 27 27 26 25 26 27 27 28 28 28 27 26 25 24 22 21 20 19 19 19 19 20 20 21
22 23 24 25 27 28 29 30 30 31 31 31 31 31 31 30 30 30 30 30 30 29 29 29 30 31 31 32 31 30 29 28 27 26 24 23 22 21 21 21 20 20 20
24 25 26 26 28 29 30 31 32 32 33 33 33 33 33 33 33 32 32 32 32 32 31 31 31 33 34 33 34 32 32 30 29 27 26 25 25 23 22 21 20 20 20
26 27 29 30 31 32 33 35 35 35 36 37 37 37 36 37 37 36 35 35 34 34 33 33 33 33 34 34 35 35 34 31 29 27 27 27 26 25 23 22 20 19 19
30 32 34 35 36 37 38 38 38 39 40 40 40 40 40 40 40 39 39 38 37 37 37 36 36 35 35 35 35 35 35 34 31 29 29 29 29 29 27 25 23 20 20
30 32 33 36 37 38 38 39 39 39 40 39 39 40 41 42 42 42 42 42 40 40 40 40 39 39 38 37 36 36 37 35 33 32 32 32 33 32 31 28 26 24 22
30 31 32 34 36 37 37 38 38 38 39 39 40 40 40 41 42 43 44 44 44 43 43 42 42 42 41 40 39 39 38 38 37 35 34 34 33 34 32 29 28 26 24
33 33 34 36 38 39 41 41 41 41 40 40 41 41 42 42 43 44 45 46 46 45 44 44 44 43 42 42 41 40 40 39 38 37 35 33 32 33 32 30 30 30 27
32 33 34 36 38 40 42 44 46 46 46 46 45 45 45 45 45 45 45 46 46 46 47 46 43 42 42 41 41 42 42 41 40 39 37 35 33 34 32 30 32 32 30
36 37 37 38 39 40 42 43 45 47 49 50 51 50 50 49 49 48 47 47 47 47 46 46 45 43 43 43 44 44 44 43 42 41 40 38 37 36 34 31 31 33 31
42 43 44 45 46 46 47 47 47 47 49 50 52 53 53 53 53 53 52 51 50 49 49 47 47 48 47 46 45 46 45 43 43 43 42 41 39 38 37 33 31 32 33
44 46 48 50 52 54 54 54 55 54 54 54 54 55 56 56 56 56 57 56 54 53 51 51 51 50 52 51 50 49 48 46 45 44 43 42 41 40 39 37 34 34 34
51 52 53 55 56 57 57 58 59 60 60 59 58 59 59 59 59 58 57 57 57 56 55 54 54 53 53 54 53 53 52 51 49 48 47 45 44 43 43 41 39 37 37
56 57 59 61 63 63 63 63 64 65 66 65 62 61 61 62 62 62 60 59 58 57 57 56 56 56 55 55 55 54 54 53 53 52 51 50 49 48 47 45 44 42 41
58 60 62 65 67 68 68 70 70 68 67 67 66 65 64 63 64 64 64 65 65 63 61 59 57 57 57 57 58 57 56 54 54 54 53 52 52 51 50 48 47 46 44
61 62 65 68 70 73 74 74 74 72 70 69 69 69 67 66 66 66 65 65 66 66 65 65 62 60 59 58 60 60 60 59 58 56 55 54 53 52 50 49 47 45 43
72 72 73 75 77 77 77 78 78 79 78 76 75 75 76 76 75 75 73 72 71 70 68 67 67 66 63 61 62 63 64 63 62 61 59 58 56 54 53 52 50 48 47
84 84 84 84 84 81 80 81 82 83 84 84 82 80 80 82 82 82 82 80 78 77 75 72 70 69 68 65 64 65 67 67 66 64 63 62 60 59 58 57 55 53 51
91 90 87 84 84 84 81 79 80 82 83 85 87 87 86 85 85 86 88 87 84 81 79 77 75 74 72 69 67 66 67 69 69 68 67 66 65 64 63 62 60 59 57
87 83 79 76 73 71 69 68 69 71 74 78 81 83 87 87 87 88 89 90 91 86 82 81 80 78 77 73 70 68 67 68 69 69 70 70 69 69 68 67 65 63 62
74 69 65 63 59 59 60 62 62 60 58 59 61 65 70 73 75 77 82 84 86 85 84 85 86 84 82 80 77 74 72 70 70 68 68 69 70 70 70 70 70 69 66
62 61 58 54 54 55 54 54 51 43 39 36 35 37 43 47 48 51 56 61 66 70 75 79 82 84 84 83 81 79 77 75 72 72 71 69 69 69 69 69 69 70 69

GEFSSE_500_meanwind_006.txt.gz
Wind_Speed
25 25 26 27 26 26 25 25 24 24 24 24 24 22 21 21 20 19 18 17 17 17 17 17 17 17 16 16 17 17 16 14 13 12 11 10 9 9 9 9 9 12 16
25 26 28 29 29 29 29 29 29 28 28 28 28 27 25 24 24 23 22 21 20 20 20 20 20 21 20 20 20 20 20 18 17 16 15 15 13 12 12 11 10 10 12
22 24 26 27 29 30 30 31 31 31 32 32 31 30 29 28 27 27 25 24 23 23 24 25 25 25 24 24 24 23 22 22 21 20 20 20 19 17 16 15 14 13 13
17 19 21 23 25 27 29 30 31 32 34 35 34 33 32 31 31 30 29 28 27 27 27 28 29 29 29 28 28 26 26 25 24 23 22 22 22 21 20 19 17 16 15
16 19 21 22 24 26 27 29 30 31 33 34 34 34 33 33 33 33 32 31 31 31 31 31 31 32 33 33 32 30 29 28 28 27 25 24 25 24 23 23 21 19 19
18 20 22 25 26 28 29 31 32 32 33 34 36 36 37 36 36 36 35 35 34 34 34 33 34 34 36 36 36 34 33 32 31 31 30 29 28 27 27 26 25 23 21
23 24 26 28 30 31 33 34 35 35 36 37 38 39 40 40 40 39 39 38 38 38 37 37 37 37 37 38 38 37 36 35 34 34 33 33 32 31 30 30 29 26 24
25 26 28 30 32 34 35 37 38 40 41 42 43 43 43 43 44 43 43 42 41 41 41 40 40 40 39 40 40 40 40 39 38 38 36 35 35 34 33 32 30 29 27
24 26 28 30 32 34 36 37 38 39 40 42 43 45 47 48 48 48 48 47 46 45 44 44 43 43 43 43 43 43 43 42 41 41 39 38 37 36 35 33 31 29 27
27 29 31 33 36 38 40 42 43 43 43 43 43 43 44 47 49 50 50 50 50 49 49 48 47 47 46 46 45 45 44 44 43 43 42 41 39 37 36 34 32 31 29
31 33 35 36 38 40 42 44 46 47 48 49 49 49 48 47 48 49 49 50 50 51 51 51 51 50 49 49 48 48 47 45 45 45 44 42 40 39 38 37 35 33 32
36 38 40 42 43 45 47 48 50 51 52 53 52 52 53 52 52 51 51 51 51 52 52 52 52 53 53 52 51 49 48 48 48 47 46 44 43 42 41 39 38 36 34
41 44 46 49 51 52 54 55 56 57 58 58 58 57 56 55 55 55 55 54 53 53 53 53 53 54 55 54 53 51 50 50 50 50 49 47 46 45 44 42 40 37 35
48 51 53 56 57 59 61 62 63 63 64 64 64 63 62 61 60 58 58 58 58 57 55 55 55 55 56 55 54 52 51 51 52 53 52 50 49 48 47 45 43 39 36
55 59 61 63 65 66 68 70 71 71 70 70 70 70 69 67 66 65 63 61 61 61 60 58 57 57 57 57 56 54 53 52 53 54 54 53 52 51 50 47 45 42 38
64 66 68 69 70 72 74 76 77 77 76 75 75 75 75 74 72 70 69 67 66 64 64 63 62 61 60 59 58 56 54 55 55 55 55 55 54 53 52 50 48 45 42
71 72 74 76 79 80 80 81 82 83 82 81 79 79 79 79 79 76 73 72 71 70 68 67 66 65 65 64 61 59 56 55 56 56 56 55 55 55 54 53 51 48 45
78 78 80 81 82 82 83 83 82 82 83 83 83 82 81 81 82 81 79 76 75 74 72 71 70 69 69 68 67 64 61 58 57 58 57 56 56 56 56 55 54 52 49
81 82 83 84 84 84 83 82 82 83 82 80 79 80 83 85 84 84 84 82 79 77 76 74 72 71 71 71 70 69 66 63 61 61 60 58 57 56 57 57 56 55 53
85 86 86 84 82 79 75 73 72 70 66 64 63 65 69 77 86 90 87 85 84 82 80 79 77 74 72 72 72 71 69 67 65 64 63 62 61 59 58 58 59 58 56
85 86 83 76 70 66 66 65 59 50 44 43 46 49 51 56 66 79 92 92 89 87 85 83 82 79 76 74 73 72 71 69 67 67 66 65 64 63 62 61 60 59 58
85 83 74 64 60 61 61 56 49 43 42 42 42 43 45 47 51 58 70 87 94 93 90 88 85 83 81 78 75 74 72 70 69 68 67 67 66 66 65 64 63 62 61
81 72 61 55 55 57 57 53 49 46 47 48 46 44 45 46 47 48 54 67 82 94 96 94 90 87 83 81 79 77 75 74 71 70 68 68 68 68 68 68 67 66 65
72 63 55 53 54 57 56 53 52 51 52 53 50 46 45 45 46 47 47 51 64 78 90 96 96 92 88 84 82 80 78 76 74 73 71 70 68 68 68 69 70 69 68
64 56 53 54 57 58 59 57 55 55 55 56 54 50 46 44 44 44 43 43 48 60 73 86 94 95 92 89 86 85 82 79 77 75 74 72 70 69 69 69 69 70 70
58 54 55 58 61 62 62 60 57 55 56 56 55 52 48 44 41 41 40 39 39 44 53 64 76 86 91 90 88 87 87 85 81 79 76 74 72 71 71 70 70 70 70

GEFSSE_500_meanwind_012.txt.gz
Wind_Speed
24 27 28 29 31 32 33 32 32 31 31 30 29 28 28 28 27 26 25 24 24 23 22 22 23 23 24 24 23 21 20 19 17 15 13 11 11 10 9 10 11 13 16
24 26 28 29 30 33 35 36 36 36 36 36 35 34 33 32 32 31 31 30 29 28 27 26 26 26 26 26 26 25 24 23 21 19 17 15 14 13 12 11 11 11 12
21 23 25 27 29 32 34 35 36 36 37 38 39 39 38 37 36 36 35 35 34 33 32 30 29 29 28 29 29 29 28 27 25 24 21 19 19 18 16 15 14 13 13
17 19 20 23 24 26 27 28 30 32 33 35 36 37 38 39 40 40 40 39 38 37 36 35 34 32 32 32 33 33 32 31 29 28 27 24 23 22 21 20 19 17 16
17 19 20 22 24 25 27 28 29 30 32 33 35 36 37 39 39 40 41 42 41 41 40 39 38 37 36 35 36 37 36 35 34 33 31 29 28 27 25 24 23 22 20
19 20 22 24 25 27 29 30 32 33 35 36 37 39 40 41 41 42 42 42 43 43 43 42 41 40 40 39 39 39 40 39 38 36 35 33 32 31 29 27 26 25 23
20 22 24 26 28 29 31 32 34 36 37 39 40 41 42 44 45 46 46 46 45 45 46 45 45 44 43 42 42 41 42 42 41 40 38 37 37 36 34 31 29 28 26
23 25 28 30 32 34 36 37 39 40 42 43 44 45 46 46 46 47 49 50 50 50 49 48 49 48 46 45 44 43 44 44 44 43 42 41 41 40 38 35 33 31 30
29 31 34 37 39 41 43 45 46 48 49 49 50 50 51 51 51 51 51 51 52 53 54 54 52 51 50 49 47 46 46 46 45 45 45 45 45 43 41 38 36 35 33
36 38 41 44 47 49 51 53 54 56 57 57 58 58 58 57 57 56 56 56 56 55 55 56 57 57 55 54 52 51 50 49 47 46 47 48 48 46 44 42 39 38 36
42 45 48 51 54 57 59 61 63 64 64 65 65 66 66 65 65 64 62 61 60 59 59 58 57 58 59 58 58 56 54 52 51 50 49 50 49 48 46 44 43 41 39
48 52 55 59 62 64 67 69 71 72 72 72 72 71 71 70 70 70 69 68 67 65 63 62 61 60 60 59 60 60 59 57 55 54 53 52 52 50 48 46 45 44 42
56 59 63 66 69 72 74 76 78 79 80 80 80 79 76 74 73 73 73 73 72 71 69 67 65 64 63 62 60 61 63 63 60 59 58 57 55 54 50 48 47 46 45
60 64 67 71 74 77 79 81 83 84 85 86 86 86 84 81 78 76 75 75 74 74 74 73 71 69 67 66 64 63 63 64 65 64 63 61 59 57 55 52 50 49 47
65 68 72 76 78 80 82 84 85 86 87 89 90 91 91 89 85 81 78 76 76 75 75 76 76 74 71 69 68 67 65 64 66 67 67 64 63 60 58 56 54 52 51
69 73 77 80 81 83 86 88 90 91 92 94 94 94 93 91 87 84 80 78 77 77 77 77 77 78 76 74 72 71 70 67 66 66 68 67 66 64 62 60 58 56 54
74 77 80 83 85 88 90 92 93 94 93 90 86 83 79 76 74 72 71 71 73 74 76 77 79 79 79 78 77 75 73 72 69 67 68 68 67 66 65 63 60 58 56
77 80 83 86 88 89 89 89 86 82 77 71 66 63 61 59 58 58 58 60 63 66 69 72 77 80 81 81 81 79 78 76 75 71 68 68 68 66 65 65 63 60 59
79 82 86 88 88 87 84 79 73 68 64 60 58 57 56 54 54 53 53 53 55 59 62 66 71 77 82 84 84 83 82 80 79 77 74 71 69 67 64 64 64 63 61
83 86 88 88 86 81 76 71 67 65 63 61 59 59 58 57 56 55 54 53 54 54 55 58 63 71 80 86 88 87 86 84 83 81 79 76 73 70 66 63 64 64 63
86 87 88 86 80 76 73 71 69 67 66 65 64 63 62 61 60 59 57 56 55 54 53 51 53 60 72 85 90 91 89 87 86 85 83 80 76 71 69 65 64 65 65
86 86 85 81 78 75 73 71 68 65 63 61 61 60 59 60 60 60 59 58 57 57 55 53 50 50 55 70 86 94 93 91 90 87 86 84 80 76 73 69 66 64 65
84 84 82 80 76 72 68 63 58 54 51 49 48 47 46 47 50 53 55 56 57 58 59 57 54 50 48 52 67 87 96 95 92 90 88 86 83 80 77 73 69 66 66
83 83 80 75 69 64 60 58 55 53 51 49 47 46 44 43 43 44 46 48 52 55 58 60 59 55 51 48 51 67 87 97 96 92 89 88 85 82 79 77 74 70 68
82 81 74 67 62 60 59 58 57 55 54 52 51 49 47 45 44 44 44 43 45 48 53 57 59 58 54 50 48 52 68 89 97 96 91 89 87 83 79 76 76 74 71
81 75 67 63 61 60 59 59 58 57 56 54 53 50 48 46 45 44 44 44 43 43 46 51 56 57 56 53 50 49 55 73 90 97 95 90 88 84 80 76 74 75 74

GEFSSE_500_meanwind_018.txt.gz
Wind_Speed
15 17 19 20 22 24 26 27 29 31 32 34 36 37 38 38 37 37 37 36 35 34 34 33 32 31 31 31 31 30 29 28 26 24 23 21 19 17 17 17 18 21 25
12 14 15 17 19 21 23 24 26 28 30 33 35 37 39 41 42 42 42 42 41 40 39 38 37 36 35 34 34 34 32 32 31 29 27 25 22 20 19 18 18 19 21
11 12 14 16 18 20 21 23 24 26 27 29 32 35 37 39 41 43 44 45 45 45 44 43 42 41 39 38 37 37 36 35 35 34 31 29 26 24 22 21 20 19 20
13 14 16 18 19 21 23 24 26 27 29 30 32 33 35 37 38 40 42 44 46 47 47 47 47 45 44 43 42 41 40 39 38 38 36 34 31 28 26 25 23 22 21
14 16 18 19 21 23 25 26 28 30 31 33 34 35 36 37 39 40 41 43 44 46 48 49 50 50 49 48 47 45 44 43 42 41 40 39 36 33 31 29 27 25 24
18 20 22 24 26 28 30 32 34 35 36 38 39 40 41 42 42 42 43 44 45 45 46 48 50 51 52 52 51 50 49 47 46 45 44 43 41 39 36 34 31 29 28
24 26 29 31 34 36 38 40 42 44 46 47 48 48 49 49 49 49 49 49 49 48 48 48 49 51 53 54 54 53 53 52 50 49 48 47 45 43 41 39 36 33 31
30 33 35 38 41 43 46 49 51 53 55 56 57 58 58 59 59 58 57 56 55 54 53 52 52 51 52 54 56 56 56 55 54 53 52 50 49 48 46 44 41 38 36
35 38 41 44 47 50 53 56 58 61 63 65 66 67 67 67 67 67 66 65 63 61 60 58 57 56 55 55 56 58 58 58 57 56 55 53 52 51 51 49 46 43 40
40 44 47 50 53 57 60 63 66 69 71 72 74 75 75 75 75 74 74 73 71 69 66 64 63 62 60 59 58 58 60 61 60 59 58 56 55 54 54 54 52 49 46
46 49 52 56 59 62 65 68 71 73 76 78 79 81 82 82 82 81 80 79 77 76 73 71 68 67 65 64 63 62 61 62 63 62 60 59 58 56 57 57 56 53 51
50 53 57 60 63 66 69 71 74 77 79 82 84 85 86 87 88 88 87 85 83 81 79 77 74 72 70 69 68 67 65 64 63 65 64 62 61 59 58 59 59 57 55
54 58 61 64 67 70 73 76 79 81 84 87 90 91 92 92 92 92 92 91 89 86 84 82 80 77 74 72 72 72 70 69 67 66 66 66 64 62 60 60 61 60 58
58 61 64 67 71 74 77 80 84 87 90 93 96 98 99 99 98 97 97 96 94 92 90 87 85 82 80 77 75 75 74 73 72 70 68 68 68 65 63 62 61 61 60
60 63 67 71 74 77 80 83 87 91 95 98 101 101 101 100 98 96 93 92 91 91 90 89 88 86 84 82 80 78 78 77 76 74 72 70 70 69 67 65 63 62 61
63 67 71 73 76 79 83 88 92 96 98 98 95 91 87 85 83 82 81 80 80 82 84 85 85 85 85 84 84 82 81 81 80 78 76 74 72 72 72 69 67 65 63
67 71 74 76 79 83 88 92 95 96 92 87 81 76 73 71 69 69 69 70 71 72 74 76 78 80 81 82 83 85 85 84 83 82 80 79 76 74 75 74 72 70 67
72 75 77 79 83 87 91 93 93 88 82 77 73 71 69 68 67 66 64 64 65 66 68 69 70 72 75 78 81 85 87 87 87 86 85 83 81 79 77 77 77 75 73
76 78 80 83 86 89 91 88 83 79 75 73 72 71 69 68 66 64 62 60 60 61 63 66 67 67 69 72 76 81 86 89 91 91 89 87 85 83 80 79 79 79 77
78 80 82 85 87 88 86 80 75 73 72 72 71 69 66 63 61 59 58 56 56 56 58 61 65 68 67 68 70 76 82 88 92 94 93 91 90 88 85 82 80 80 80
80 82 84 86 87 85 79 74 71 70 70 70 67 64 61 58 56 54 53 52 52 53 54 55 59 65 68 68 68 70 75 83 90 95 96 95 93 91 89 86 82 80 80
81 82 84 86 85 80 75 73 71 71 70 67 62 58 56 53 51 50 48 48 47 48 50 52 54 58 65 69 69 68 70 74 83 90 96 98 96 94 93 90 86 82 79
81 83 85 85 81 76 73 72 71 69 66 60 54 51 50 49 48 47 46 45 44 44 44 46 49 52 56 64 70 70 69 70 73 81 90 97 98 97 96 93 90 85 81
81 83 84 82 77 73 73 72 71 67 60 54 50 48 50 51 50 49 47 46 44 43 42 42 44 48 51 56 64 70 71 70 69 73 81 90 97 99 98 95 93 89 85
82 84 83 78 74 72 73 72 69 63 56 51 49 50 52 53 54 53 51 49 48 46 44 43 41 43 46 50 56 65 72 72 71 70 73 83 92 97 99 97 94 92 89
82 82 80 75 72 72 72 70 66 59 53 50 51 52 53 54 55 56 55 53 51 48 46 45 43 42 42 46 50 58 67 73 74 71 69 74 85 94 99 99 96 93 92

GEFSSE_500_meanwind_024.txt.gz
Wind_Speed
12 13 14 15 16 18 19 20 22 23 25 26 28 29 31 33 35 38 40 41 42 42 42 42 42 42 41 40 39 38 37 36 34 33 31 29 26 23 22 22 22 22 24
12 13 14 15 16 17 18 19 21 22 23 25 26 27 29 30 31 33 36 38 41 44 46 46 47 47 46 45 44 43 41 40 39 37 35 33 31 28 25 24 24 23 25
14 14 15 16 18 19 21 22 24 26 27 29 30 32 33 34 34 34 35 36 38 40 43 46 49 50 51 51 50 48 47 45 43 42 40 38 36 33 30 27 26 26 26
15 17 19 21 23 25 27 29 31 33 34 36 37 39 40 41 41 41 41 41 41 41 42 44 46 49 52 54 55 54 53 51 49 47 45 43 40 37 34 32 30 29 28
18 21 23 25 27 30 32 34 36 38 40 42 44 45 47 48 49 49 49 49 49 48 47 47 47 48 50 52 55 58 58 57 54 52 49 47 45 42 39 37 35 33 31
22 24 27 30 32 34 37 39 41 43 46 48 49 51 52 54 55 56 56 56 56 56 55 54 53 52 51 52 53 56 59 61 60 58 55 52 49 47 44 41 39 37 35
26 29 32 34 37 39 42 44 47 49 51 54 56 58 59 61 62 63 63 63 63 62 61 60 60 59 58 56 56 55 57 60 62 62 61 58 55 51 48 46 44 42 39
31 33 35 38 41 43 46 49 52 54 57 60 63 66 68 70 71 71 71 71 70 69 68 67 65 64 63 62 61 60 58 58 60 63 64 63 61 57 54 50 48 47 45
33 36 38 41 44 46 50 53 57 60 63 67 70 72 74 76 77 78 78 78 77 77 75 74 72 70 69 67 66 66 64 62 61 61 64 66 65 63 59 56 53 51 50
37 39 42 44 47 51 54 58 61 65 68 71 74 76 78 80 81 82 83 84 84 83 82 81 79 77 75 73 71 70 69 68 66 64 63 65 67 67 65 61 58 56 54
40 43 46 49 52 55 58 62 65 69 72 74 77 79 81 83 85 86 88 89 90 90 89 89 87 85 82 80 78 76 74 73 71 70 68 66 67 68 69 66 63 61 59
43 46 49 51 54 58 62 65 69 72 75 78 81 84 86 88 90 92 94 95 97 97 97 97 96 94 92 88 85 83 80 78 76 75 73 71 69 69 70 69 67 65 63
46 49 52 54 57 61 65 68 72 75 78 81 84 87 90 92 95 96 97 96 96 96 96 97 98 98 98 97 94 90 87 83 81 80 78 77 75 72 71 71 70 68 67
49 52 54 57 61 65 68 72 75 79 82 86 89 92 94 95 95 93 91 88 86 85 85 86 89 91 94 97 96 95 93 90 86 84 83 82 80 77 75 73 72 70 69
50 54 57 61 65 69 73 77 81 85 88 91 94 95 94 92 88 84 81 79 78 77 77 77 78 79 82 87 90 92 93 93 91 89 88 87 85 83 80 77 74 73 71
54 57 61 65 69 73 77 81 86 89 91 93 94 93 89 85 81 78 76 75 74 72 72 71 72 73 74 77 80 84 88 90 92 92 92 92 90 88 86 82 79 76 74
57 61 65 69 73 77 81 85 88 91 93 93 91 87 83 80 78 76 73 70 68 66 64 63 63 65 68 71 74 77 81 85 88 92 95 96 95 93 91 88 84 80 77
60 64 68 72 75 79 83 87 90 92 92 90 86 83 80 78 75 71 67 63 59 56 53 52 53 55 58 63 68 72 75 80 85 91 96 99 100 98 96 92 89 85 81
62 66 71 74 78 82 85 88 91 91 89 85 82 80 78 75 71 65 60 56 52 50 49 48 47 48 50 54 60 66 71 76 82 90 96 100 103 103 100 97 93 90 85
65 69 73 76 80 83 86 88 90 88 85 82 80 79 76 72 66 60 56 53 52 51 50 50 49 48 48 48 51 57 64 72 79 86 95 102 106 106 104 101 98 94 90
67 71 74 77 81 83 86 88 88 85 81 80 79 77 73 69 63 59 56 54 55 55 55 55 54 51 50 49 48 49 55 65 74 82 91 100 106 109 108 105 102 98 95
69 72 75 78 81 84 87 89 87 82 79 78 76 74 70 65 62 59 58 58 59 60 60 61 60 57 54 53 50 47 48 56 67 77 86 95 103 109 111 109 106 102 98
70 73 76 79 83 86 88 88 83 80 78 77 74 70 66 62 61 61 62 63 65 66 66 65 64 62 58 56 54 51 48 50 59 68 80 90 98 104 110 112 109 105 102
71 74 76 80 84 87 88 85 82 79 77 76 73 68 64 62 62 64 67 69 71 72 72 70 68 65 62 57 56 54 51 48 53 61 71 84 92 98 104 110 111 109 105
72 74 77 81 85 86 86 83 80 79 78 75 71 66 62 62 65 69 72 75 76 76 74 72 69 67 63 59 55 54 52 50 49 56 63 75 86 92 98 105 111 111 108
72 75 78 82 84 85 84 81 79 78 76 74 69 65 64 65 69 73 75 74 71 67 64 62 61 60 59 56 53 52 51 50 50 51 57 66 79 87 91 98 106 111 110

GEFSSE_500_meanwind_030.txt.gz
Wind_Speed
4 5 5 7 8 10 11 13 15 16 18 20 22 23 25 26 27 28 29 30 32 33 36 38 41 44 45 46 45 45 44 43 41 39 36 33 31 28 27 26 26 27 28
6 7 8 10 12 14 16 18 20 22 23 25 26 28 29 31 32 33 34 35 36 36 37 38 39 41 43 46 48 49 49 48 47 45 43 40 37 34 32 30 29 29 29
9 11 13 15 17 19 21 23 24 26 28 29 30 32 33 34 35 37 38 39 40 41 42 43 43 44 45 45 47 49 52 53 52 51 50 47 44 40 37 35 32 31 32
14 16 17 19 21 23 25 26 28 29 30 31 33 34 35 37 38 39 41 42 44 45 46 47 48 49 49 50 50 50 51 53 55 56 56 54 51 47 44 41 38 35 34
17 19 21 22 24 26 27 29 30 32 33 35 36 38 40 41 43 44 45 47 48 49 50 51 52 52 53 54 55 55 55 54 55 58 59 59 58 55 51 47 44 41 38
20 22 24 25 27 28 30 32 34 36 38 40 42 44 46 47 48 50 51 53 54 55 56 57 58 58 58 58 59 60 60 59 59 59 60 62 62 61 59 55 50 47 43
22 24 26 28 30 32 35 37 39 42 44 46 49 51 53 54 56 57 59 61 62 63 64 65 65 65 65 65 65 65 65 64 64 64 64 64 65 65 64 62 58 53 49
25 27 29 32 34 37 39 42 44 47 50 52 55 57 60 62 64 66 67 69 71 72 73 73 73 73 73 73 73 72 71 70 70 69 69 69 68 67 67 67 65 60 56
27 30 32 35 38 40 43 45 48 51 54 56 59 61 64 66 69 72 74 76 78 80 80 81 81 81 80 80 79 79 78 77 76 75 74 74 73 71 70 70 69 67 63
30 33 36 39 42 44 47 49 52 54 57 60 63 66 68 71 74 78 81 83 86 87 88 89 90 89 89 87 86 85 84 84 83 82 80 79 79 77 75 73 72 71 69
34 38 41 44 47 49 51 54 56 59 62 65 69 72 75 78 82 85 88 91 93 94 96 97 97 97 96 94 93 91 90 89 89 88 86 85 84 83 81 78 75 74 73
38 42 45 48 49 51 54 57 60 63 67 70 73 76 80 83 87 91 94 97 99 100 101 101 101 100 99 98 97 96 96 95 94 93 92 91 90 88 87 84 80 77 76
42 46 48 49 51 53 56 59 63 66 70 74 77 80 84 88 93 97 100 101 102 102 101 100 99 99 98 97 96 96 96 97 97 98 97 97 96 94 92 90 87 82 79
45 48 49 51 53 55 59 62 66 70 73 77 80 85 90 94 99 102 103 104 102 100 98 96 94 92 91 90 90 90 91 93 96 98 100 101 102 100 98 96 93 89 84
48 49 50 52 55 59 62 66 69 73 76 80 84 90 95 99 102 103 102 99 97 94 91 89 87 85 84 83 83 84 84 86 89 93 97 102 105 105 104 102 99 95 91
48 49 51 54 58 61 65 69 72 75 79 83 89 94 99 101 101 99 95 91 87 85 83 82 81 80 78 77 77 77 78 79 82 86 92 97 103 107 109 107 105 101 97
48 50 52 56 60 64 67 70 74 77 82 87 92 97 99 99 96 91 87 84 82 81 80 78 76 74 72 71 70 70 71 72 75 80 86 92 98 105 110 111 110 107 103
48 51 54 58 62 66 69 72 75 80 85 90 94 97 96 93 88 84 82 81 79 77 74 72 69 67 66 65 65 65 65 65 68 73 79 86 93 101 107 113 114 111 108
49 52 56 60 64 68 70 74 78 83 87 92 95 94 91 86 82 80 80 78 76 73 71 70 68 66 64 63 63 63 63 62 63 66 72 81 88 96 103 110 115 115 113
50 54 58 62 66 68 71 75 80 85 89 92 93 90 85 81 79 78 77 75 73 72 72 72 71 70 69 67 65 64 63 62 62 63 65 73 83 91 99 107 114 117 117
52 56 60 63 66 69 72 76 81 85 89 91 90 85 81 78 77 77 75 73 73 74 74 73 72 71 71 72 71 68 66 65 64 64 63 65 74 86 95 103 112 117 119
54 57 61 64 67 70 73 77 82 86 89 89 85 81 78 77 77 76 74 74 74 75 73 70 69 67 67 69 72 73 71 69 70 67 64 64 67 76 89 99 108 115 120
55 58 62 65 67 70 74 78 83 87 88 86 81 77 76 76 76 75 74 74 76 74 69 65 61 58 55 56 63 69 74 75 73 69 68 65 65 68 79 93 103 112 118
56 59 63 65 68 71 75 79 84 86 86 83 78 75 75 76 75 74 74 75 74 70 64 58 54 50 46 43 46 54 64 72 75 73 71 68 65 65 70 83 97 108 116
56 60 63 66 69 72 75 80 84 85 83 80 76 74 75 75 74 73 74 74 71 65 57 52 49 44 39 33 31 36 47 60 69 73 71 70 67 65 65 73 88 101 112
57 60 64 66 69 72 76 80 83 84 81 77 74 73 74 73 72 72 73 72 67 58 51 46 43 39 35 29 22 20 29 43 57 67 69 68 68 66 64 66 78 93 105

GEFSSE_500_meanwind_036.txt.gz
Wind_Speed
8 8 9 11 12 14 16 17 19 21 22 24 25 26 28 29 31 32 33 34 35 36 36 36 36 37 36 36 36 36 36 37 38 39 40 39 37 34 31 28 26 26 26
9 11 12 14 15 17 18 20 22 23 24 25 27 28 29 31 32 33 35 36 37 38 39 39 40 40 40 40 39 39 39 37 37 39 41 42 41 40 37 34 32 30 29
12 13 14 16 17 19 20 22 23 25 27 28 30 31 33 34 35 37 38 39 40 41 42 43 44 44 44 44 44 43 42 41 41 41 42 42 42 43 42 41 38 36 34
14 15 16 17 19 20 22 24 26 28 30 31 33 35 37 39 40 42 43 44 46 47 48 49 49 49 49 49 49 48 47 46 45 46 46 44 44 44 44 44 44 42 39
15 16 18 19 21 23 25 27 29 31 33 35 37 39 41 43 45 46 48 49 50 52 53 54 55 55 56 56 56 55 54 52 51 51 50 49 48 48 47 46 47 46 45
17 19 20 22 24 26 28 31 33 35 37 38 40 42 44 46 48 49 51 53 55 56 57 59 60 61 61 62 62 62 61 60 58 57 56 55 54 53 51 50 49 48 48
19 21 22 24 27 29 32 34 35 37 39 40 42 44 46 48 50 52 55 57 60 61 63 65 66 67 68 68 68 68 67 67 66 65 64 62 60 59 57 55 53 52 51
21 23 25 28 30 33 35 37 38 39 41 42 45 47 50 52 55 58 60 63 65 67 69 70 72 73 74 74 75 75 74 73 72 72 71 69 67 66 63 61 58 57 55
24 27 29 31 34 36 37 39 40 42 44 46 49 52 55 58 61 64 66 69 71 73 74 76 77 78 79 80 81 82 81 80 79 78 77 76 74 73 71 67 65 62 60
28 30 33 35 36 38 39 40 42 44 47 50 53 56 60 63 66 69 71 74 76 79 82 84 87 89 90 91 91 91 90 89 88 86 84 82 81 80 78 75 72 69 66
31 33 35 37 38 39 41 43 45 48 51 54 57 61 64 67 69 71 74 77 81 84 89 93 97 100 103 104 105 105 103 102 99 96 93 90 88 86 84 82 79 76 73
33 35 36 37 39 41 43 45 48 51 55 57 61 63 66 69 71 74 77 81 86 91 96 101 106 110 113 115 116 116 116 114 112 108 105 101 98 94 92 89 86 83 80
35 36 37 38 40 43 45 48 51 54 57 60 63 66 68 71 73 77 81 86 92 98 104 109 113 115 117 117 118 117 117 117 116 115 113 110 107 103 100 96 93 90 86
35 37 38 40 42 45 48 51 54 57 60 62 65 67 69 72 76 81 86 93 99 105 110 112 112 109 106 103 102 101 102 104 107 109 112 112 112 110 107 104 100 97 93
36 38 40 42 45 47 50 53 56 59 62 65 67 69 71 75 80 85 92 99 105 108 108 104 98 93 88 85 84 84 85 87 90 94 99 103 107 110 111 109 106 103 100
38 40 42 44 47 49 52 55 57 60 63 66 68 70 74 79 85 91 98 103 104 102 96 89 85 82 81 81 81 81 81 82 83 85 88 92 96 101 106 109 109 108 105
40 42 44 46 48 51 53 56 59 61 64 67 69 72 77 83 90 96 101 102 98 91 85 82 81 81 81 81 81 80 80 80 81 82 84 86 88 92 97 103 107 109 109
41 44 46 47 50 52 54 56 59 62 65 68 71 75 81 87 94 99 100 96 89 83 80 80 80 80 79 79 79 78 78 78 79 80 81 83 85 88 91 96 101 106 109
43 45 46 48 50 53 55 57 60 63 66 69 72 77 84 91 96 98 95 88 82 79 78 79 78 77 77 75 72 69 68 69 71 74 77 80 82 84 88 92 97 103 108
43 45 47 49 51 53 55 58 61 64 67 70 75 80 87 93 96 95 89 82 79 77 77 76 75 75 74 71 65 61 59 60 62 65 70 75 79 82 85 90 95 101 107
44 46 48 49 51 53 55 58 62 65 68 72 77 83 89 94 94 91 83 78 76 76 75 75 76 73 69 66 61 56 52 52 54 57 62 68 74 79 83 87 93 98 104
46 48 50 51 52 54 56 59 63 66 69 73 79 84 91 93 92 86 79 76 75 74 73 75 75 71 65 62 59 55 51 45 44 47 53 60 69 76 81 85 90 95 100
49 52 54 54 55 56 58 61 64 67 70 75 80 86 91 92 88 82 76 75 74 74 74 75 74 68 62 56 54 53 51 46 38 34 41 51 62 72 79 82 85 90 95
51 54 57 58 59 59 60 63 66 69 72 76 81 87 90 89 84 79 75 74 73 73 74 75 71 65 60 53 48 46 45 45 40 28 27 37 52 66 76 80 82 85 90
53 56 59 62 63 63 63 65 67 70 73 77 82 87 89 86 81 76 73 73 72 73 74 73 68 62 57 51 46 42 38 36 36 30 20 24 39 56 70 77 78 79 83
55 58 61 64 66 67 67 67 69 71 74 77 82 87 88 84 78 74 72 72 72 72 73 71 66 61 54 48 43 39 36 33 30 28 21 16 26 44 60 71 75 76 78

GEFSSE_500_meanwind_042.txt.gz
Wind_Speed
6 7 8 9 10 10 11 12 13 14 16 17 18 20 21 22 24 25 26 27 29 30 31 31 32 32 32 33 33 33 32 32 32 34 35 35 35 36 36 36 36 34 32
7 8 9 10 10 11 12 13 15 16 18 19 21 22 24 25 27 28 29 30 31 33 34 35 36 36 37 37 38 38 38 38 37 37 38 39 39 38 38 39 40 40 38
8 9 9 10 11 12 13 15 17 19 21 23 24 25 27 28 29 30 31 32 33 34 36 37 38 40 41 42 42 43 43 43 43 43 43 43 43 43 42 42 42 43 43
9 9 10 11 13 14 16 19 21 23 24 26 27 28 29 29 30 31 33 34 35 36 37 39 40 42 43 45 46 47 48 48 48 48 49 49 49 48 48 46 45 45 46
10 11 12 14 16 18 20 22 24 25 26 27 28 29 30 30 32 33 35 36 38 39 41 42 44 45 47 48 49 50 51 52 53 54 54 55 55 55 54 53 51 49 49
11 13 15 17 19 21 23 24 26 27 27 28 29 30 31 33 34 36 37 39 41 43 45 47 48 50 51 53 54 55 55 56 56 58 59 60 60 61 61 60 58 55 54
13 15 17 20 21 23 25 26 27 27 28 29 30 32 33 35 37 39 41 43 45 47 49 51 53 54 56 58 59 60 61 61 61 62 63 64 66 66 67 67 66 63 60
17 19 21 23 25 26 27 27 28 29 30 31 33 34 36 38 40 42 44 46 48 51 53 55 57 60 62 64 65 67 68 69 69 70 70 70 70 71 72 72 72 71 68
20 22 24 25 26 27 28 29 30 31 33 34 36 37 39 41 43 45 48 50 52 55 57 60 63 66 68 71 73 75 77 78 79 79 79 79 79 78 78 78 77 77 76
22 24 25 26 27 28 29 30 32 33 35 37 39 41 43 45 47 49 51 53 56 59 62 65 68 71 75 78 81 84 87 89 91 92 91 91 90 89 88 86 85 83 82
23 24 25 26 27 29 30 32 34 36 38 40 42 44 46 47 49 51 54 56 59 62 66 69 73 76 80 85 89 93 97 100 102 103 102 102 101 99 98 96 93 91 88
22 23 24 26 28 30 32 34 36 38 40 43 45 46 48 50 51 54 56 59 62 66 69 73 77 81 86 91 96 101 106 109 111 113 113 113 113 112 110 107 104 101 97
22 23 25 27 29 32 34 36 38 40 43 45 47 48 50 52 54 56 59 62 65 68 72 76 81 86 91 97 102 107 110 113 113 113 112 112 113 115 116 117 116 112 108
21 23 25 27 30 33 35 37 39 42 44 46 48 50 51 53 55 58 60 63 67 70 75 79 84 89 96 101 106 108 109 108 105 102 99 98 100 103 108 113 118 120 118
20 23 25 28 31 33 35 37 39 41 43 45 47 49 51 53 56 59 61 64 68 72 77 82 87 93 99 103 105 104 101 98 95 93 92 91 91 92 95 100 108 117 122
21 24 27 29 31 33 35 37 39 41 43 45 47 49 50 53 56 59 62 65 70 74 79 85 91 96 100 101 99 96 92 90 89 89 89 88 88 89 90 93 98 105 115
23 26 28 30 32 34 35 38 40 41 43 46 48 49 51 54 56 59 63 67 71 76 82 88 94 97 98 95 91 87 85 84 83 82 81 80 81 83 87 90 94 98 104
25 27 30 31 33 34 36 38 40 43 45 47 50 51 53 55 57 61 64 69 73 79 85 91 95 95 93 89 84 81 79 78 76 75 73 71 70 72 77 84 91 95 98
25 28 30 32 34 35 38 40 42 44 47 50 52 54 55 57 60 63 66 71 76 81 88 92 94 92 88 83 80 77 74 73 71 69 67 65 63 63 66 71 81 91 97
25 28 31 34 36 38 40 42 44 46 49 52 55 57 59 60 62 65 69 73 78 84 89 92 90 87 83 80 78 75 71 69 67 64 62 60 59 58 60 63 69 80 91
26 30 33 35 38 41 43 45 47 49 52 55 58 60 62 63 65 67 71 75 81 86 90 90 87 83 79 78 76 72 67 64 62 59 57 56 56 55 55 58 63 70 81
28 31 34 37 40 43 46 48 50 52 54 57 60 63 65 66 68 70 73 78 83 87 89 87 84 80 77 76 75 73 67 59 54 52 51 52 52 51 50 52 58 65 73
29 32 35 38 41 45 48 51 53 55 57 59 62 66 68 69 70 72 75 80 84 87 87 84 81 78 75 73 73 72 68 61 53 45 43 44 46 46 45 44 50 59 69
31 34 37 40 43 46 49 53 55 57 59 61 64 67 70 71 72 74 77 81 85 86 85 81 78 76 75 72 69 67 65 61 56 47 37 36 39 40 40 38 41 50 63
34 37 40 42 45 48 50 54 57 59 61 63 65 68 71 73 74 75 78 82 84 85 82 78 75 74 73 71 67 63 59 56 54 51 42 34 32 34 36 35 33 40 55
38 40 42 44 47 49 52 54 57 60 63 64 67 69 72 74 75 77 79 82 84 83 79 76 73 72 71 69 66 62 57 53 50 48 44 37 31 28 30 31 30 32 44

GEFSSE_500_meanwind_048.txt.gz
Wind_Speed
2 1 2 3 4 5 7 8 9 10 11 12 14 15 16 16 17 17 18 19 19 20 20 20 21 21 21 21 21 21 22 22 24 26 27 27 27 27 27 27 28 28 29
2 3 4 5 6 8 9 10 11 13 14 15 16 17 18 18 19 19 19 20 20 21 21 22 23 23 23 23 23 23 23 24 26 27 29 30 30 31 31 31 32 32 32
3 4 5 7 8 10 11 13 14 15 17 17 18 18 18 19 19 19 20 20 21 22 23 24 25 26 26 27 27 27 27 27 28 29 31 32 33 33 34 35 36 36 36
5 6 7 9 11 13 14 16 17 18 19 19 20 20 20 20 20 21 21 22 23 23 24 26 27 28 29 30 31 31 31 32 33 33 34 35 37 37 37 38 39 40 41
7 9 10 12 14 16 18 19 20 20 21 21 21 21 22 22 23 24 24 25 26 27 28 28 29 31 32 33 33 34 35 35 37 37 38 39 41 41 42 42 42 43 44
10 12 13 15 17 19 20 21 21 21 22 22 23 23 24 25 26 27 28 29 30 31 32 33 33 34 35 36 36 37 38 39 40 41 42 44 45 46 47 47 48 48 48
12 14 16 18 19 20 21 21 22 22 22 23 24 25 26 27 29 30 31 32 33 35 35 36 37 38 39 40 40 41 42 43 44 45 46 47 48 50 51 53 54 54 55
15 16 18 19 20 20 21 21 21 22 23 24 25 27 28 29 30 32 33 34 36 37 38 39 41 42 43 44 45 46 46 47 48 49 50 52 53 54 56 58 59 60 61
16 18 19 19 19 20 20 21 22 23 24 25 26 27 29 30 31 32 34 35 36 38 39 41 43 44 45 47 48 49 51 52 53 54 56 57 59 61 62 64 65 66 67
17 18 18 19 19 19 20 21 22 24 25 26 27 28 29 30 31 32 34 35 37 38 40 42 43 45 47 49 51 52 54 56 57 59 61 63 65 67 70 72 73 74 75
16 17 17 18 18 19 21 22 24 25 26 27 28 29 30 31 32 33 34 35 37 38 40 42 44 46 48 50 53 55 56 58 60 63 65 68 71 74 77 80 83 85 87
15 15 16 17 18 20 22 24 26 27 28 29 30 30 30 31 32 33 34 36 37 39 41 42 44 47 49 52 54 57 59 61 63 66 69 72 76 80 84 88 92 96 97
14 14 16 17 20 22 24 25 27 28 29 30 31 31 32 32 33 34 36 37 38 40 42 44 46 48 51 53 56 58 61 63 66 69 72 77 81 86 90 95 100 104 107
13 14 16 18 21 23 25 26 27 29 30 32 32 33 34 35 36 37 38 39 41 42 44 46 48 50 53 55 58 60 63 66 69 73 77 82 87 91 96 101 105 108 111
13 14 17 19 22 23 25 26 28 29 31 33 34 35 37 38 39 41 42 43 44 45 47 49 51 53 55 58 60 63 66 69 73 77 82 87 92 97 101 104 105 105 105
14 15 17 19 21 23 25 27 28 30 32 34 35 37 39 40 41 43 44 45 47 48 50 52 54 56 58 61 64 66 69 73 77 82 87 92 97 101 103 103 102 99 96
15 17 18 20 22 23 25 27 29 31 33 35 37 39 40 42 43 44 46 47 48 50 52 55 57 59 62 64 67 70 73 77 81 86 91 95 98 100 101 100 96 92 87
17 18 20 22 23 25 26 28 30 32 35 37 39 41 42 44 45 46 47 49 50 52 54 57 60 62 65 67 70 72 76 80 85 89 93 96 97 98 96 93 88 83 79
19 21 22 24 25 27 28 30 32 34 36 39 41 43 45 46 47 48 49 51 52 54 56 59 62 65 67 69 72 75 78 83 87 91 93 94 95 94 91 86 81 76 73
22 23 25 26 28 29 31 32 34 36 38 41 43 46 47 48 50 50 51 53 54 56 58 61 64 67 69 71 74 77 81 85 88 90 91 91 90 88 84 80 75 71 67
25 27 28 29 31 32 33 35 37 39 41 43 46 48 50 51 52 53 53 54 56 58 60 62 65 68 71 74 76 78 81 84 87 87 87 86 85 82 79 75 71 67 64
28 30 31 32 34 35 37 38 39 41 43 46 48 50 52 54 55 55 56 56 58 59 62 64 67 70 73 77 79 82 83 83 85 83 82 81 79 77 74 72 68 65 61
31 33 34 35 36 38 40 41 43 44 46 49 51 53 55 56 57 58 58 59 60 62 64 66 69 72 75 79 82 85 86 86 86 81 76 75 73 71 69 68 66 63 59
34 36 37 38 40 41 43 44 46 47 49 51 54 56 57 58 59 60 60 61 62 64 65 68 70 73 77 80 83 85 87 87 88 83 74 70 67 65 64 64 63 61 58
37 39 40 41 42 44 45 47 49 50 52 54 56 58 59 60 60 61 62 63 64 65 67 69 72 75 78 81 83 84 85 85 85 84 76 67 62 60 60 60 61 60 56
40 42 43 44 45 47 48 50 52 53 55 56 58 60 61 62 62 62 63 64 65 67 68 70 73 76 80 82 84 83 83 82 81 80 77 69 61 56 55 56 58 59 55

GEFSSE_500_meanwind_054.txt.gz
Wind_Speed
4 4 4 4 4 4 4 5 6 7 9 10 11 12 13 14 14 15 15 15 15 15 15 15 15 15 15 15 17 18 18 18 18 18 18 19 19 19 19 20 20 20 21
3 3 3 4 4 5 6 7 8 10 11 12 13 14 15 15 16 16 16 16 16 16 16 16 16 16 16 16 18 19 19 20 20 20 21 21 21 21 22 22 22 23 23
4 4 4 5 6 7 8 9 11 12 13 14 15 16 16 16 17 17 17 17 17 17 18 18 18 18 19 19 20 21 22 22 23 23 24 24 24 24 25 25 26 26 26
5 6 6 7 8 9 11 12 13 14 15 15 16 16 17 17 17 18 18 19 19 20 21 21 22 22 23 23 24 25 25 26 27 27 28 28 28 28 29 29 30 30 30
7 8 9 10 11 12 13 14 14 15 15 15 15 16 16 17 17 18 19 20 21 22 23 24 25 25 26 27 27 28 29 30 30 31 32 32 33 33 33 34 34 34 34
10 10 11 12 13 13 14 14 14 14 14 14 15 15 16 17 18 19 19 20 21 22 24 25 26 27 28 29 29 30 31 32 33 34 35 36 36 37 37 38 38 39 39
12 12 13 13 13 13 13 13 13 13 14 14 15 15 16 17 18 19 20 20 21 22 23 24 25 26 27 28 29 30 32 33 34 36 37 38 39 40 41 42 42 43 43
13 13 13 13 13 12 12 12 12 13 13 14 15 16 17 18 19 19 20 21 21 22 23 24 24 25 26 27 28 30 31 33 34 36 38 39 41 42 43 44 45 46 47
14 14 13 12 12 11 11 11 12 13 14 16 17 17 18 19 20 21 22 22 23 24 24 25 25 26 27 27 28 29 30 32 33 35 37 39 41 43 45 46 48 49 50
14 13 12 12 11 10 10 11 13 14 16 17 18 19 20 21 22 23 24 25 26 26 27 27 28 29 29 30 30 30 31 32 33 34 36 38 40 42 44 47 49 51 53
13 12 11 10 10 10 11 12 14 15 17 18 19 20 21 22 23 24 26 27 28 29 30 31 32 33 33 34 34 34 35 35 36 37 37 38 40 42 44 46 49 51 54
13 12 11 10 10 10 11 13 14 15 17 18 19 20 21 22 23 25 26 28 29 30 31 32 34 35 37 37 38 39 39 40 40 41 41 42 43 44 45 47 49 51 54
12 12 11 10 10 11 12 13 14 15 16 18 19 20 21 23 24 25 27 28 30 31 32 33 35 36 38 39 40 41 42 43 43 44 45 46 47 48 49 50 51 53 55
13 12 12 11 11 12 12 13 15 16 17 18 20 21 22 24 25 27 28 30 31 33 34 35 36 38 39 41 42 43 44 45 46 47 48 49 50 51 52 53 55 56 58
14 14 14 13 13 14 15 15 17 18 19 20 21 23 24 26 27 29 31 33 34 36 37 38 39 40 41 42 44 45 46 47 48 49 50 51 53 54 55 57 58 60 62
16 16 16 16 16 17 17 18 19 20 22 23 24 26 27 29 30 32 33 36 38 40 41 42 42 43 43 44 45 47 48 50 51 52 54 55 56 57 59 60 62 64 66
18 18 18 19 19 20 21 22 23 24 25 26 28 29 31 32 34 35 37 38 41 43 45 46 47 46 47 47 48 49 51 52 54 56 57 58 60 61 63 64 66 68 70
20 21 21 22 22 23 24 25 26 28 29 30 31 33 34 35 37 38 40 42 44 46 48 50 51 51 50 50 51 52 53 55 57 58 60 62 63 65 67 68 70 71 73
23 24 24 25 26 27 28 28 30 31 32 34 35 36 37 38 40 41 43 45 47 49 51 53 54 54 53 53 53 54 55 57 58 60 62 64 66 68 69 71 72 74 75
26 26 27 28 30 31 31 32 33 35 36 38 39 40 41 42 43 45 46 48 49 51 54 56 57 57 56 55 55 55 56 58 59 61 63 66 68 69 71 73 74 75 76
29 30 31 32 33 34 34 36 37 38 40 41 43 44 45 46 47 48 50 51 53 54 57 59 60 59 58 57 57 57 57 59 60 62 65 67 69 71 72 74 75 76 76
32 33 34 35 36 37 38 40 40 42 43 45 46 48 49 49 50 52 53 54 56 58 60 62 62 61 60 59 59 59 60 60 61 63 65 68 70 71 73 75 76 77 78
34 35 37 38 39 40 42 43 44 45 46 47 49 51 52 53 54 55 56 58 59 61 62 64 64 63 61 60 60 61 62 63 64 65 66 68 71 72 74 75 77 79 80
37 39 40 41 43 44 46 47 48 49 49 51 53 54 55 57 57 58 59 60 62 63 64 66 65 63 62 61 61 62 63 65 66 66 67 69 70 72 74 76 78 80 82
40 42 43 45 46 48 49 50 51 52 53 55 56 57 58 60 60 61 62 63 64 65 66 67 65 64 63 62 63 63 64 65 67 67 67 69 70 73 75 76 78 80 82
42 44 46 48 49 51 52 54 55 56 57 59 59 60 61 62 62 63 64 66 66 67 67 67 65 64 64 64 64 64 65 66 68 69 68 69 70 71 74 76 78 80 81

GEFSSE_500_meanwind_060.txt.gz
Wind_Speed
4 5 5 5 5 6 6 7 8 9 9 10 10 10 10 10 11 11 11 12 12 13 13 14 14 15 15 15 15 14 14 15 15 15 15 15 16 16 16 17 17 18 18
4 4 5 5 6 6 7 8 9 10 10 10 10 11 11 11 11 11 11 11 12 12 13 14 14 15 16 16 16 16 16 16 16 17 17 17 18 18 19 19 19 20 20
4 5 5 6 7 8 9 9 10 11 11 11 12 12 11 11 11 11 12 12 12 13 14 14 15 16 17 18 18 18 19 19 20 20 20 21 21 21 22 22 22 22 22
5 6 7 8 9 10 11 11 12 12 12 12 12 12 12 12 12 12 12 13 13 14 14 15 16 17 18 19 20 21 21 22 23 23 23 24 24 25 25 26 26 26 26
7 8 9 10 11 12 12 13 13 12 12 12 12 12 11 11 12 12 13 13 14 14 14 15 16 17 18 19 20 21 22 23 24 25 26 26 27 28 28 29 29 30 30
9 10 11 12 13 13 14 13 13 12 12 12 11 11 11 12 12 12 13 14 14 15 15 16 16 17 18 19 20 21 22 23 24 25 26 27 28 29 30 31 32 32 33
11 12 14 14 15 14 14 13 13 12 11 11 11 11 12 12 13 14 14 15 15 16 16 17 18 19 19 20 21 21 22 23 23 24 25 26 27 28 29 31 32 33 34
14 15 16 16 16 15 14 14 12 11 11 11 11 12 13 13 14 15 16 16 17 17 18 19 19 20 21 22 23 23 24 25 25 25 26 27 27 28 29 30 32 33 35
16 16 17 16 16 15 14 13 12 11 11 12 12 13 13 14 15 16 17 17 18 19 19 20 21 22 23 24 25 26 27 28 28 29 30 30 30 31 31 32 33 34 35
18 18 18 17 16 16 15 13 12 12 12 12 12 13 14 14 15 16 17 18 19 19 20 21 22 23 24 25 27 28 29 30 31 32 33 34 34 35 35 36 36 37 37
19 18 18 18 17 16 15 14 13 13 12 13 13 13 14 15 15 16 17 18 19 20 21 22 23 24 25 27 28 29 30 32 33 34 36 37 38 38 39 39 40 41 41
19 18 18 18 17 16 16 15 14 14 14 14 14 14 15 15 16 17 18 19 20 21 22 23 24 25 26 27 28 30 31 33 34 36 37 39 40 41 42 43 43 44 44
19 19 20 19 18 18 17 17 16 16 16 16 16 16 16 17 17 18 19 20 21 23 24 25 26 27 28 29 30 31 32 33 35 36 38 40 41 43 44 45 46 47 48
19 20 21 20 19 20 19 19 19 19 19 19 18 19 19 20 20 21 22 24 25 26 27 28 29 30 31 32 33 34 35 35 36 37 39 41 42 44 45 47 48 49 50
21 22 22 22 22 22 22 22 22 22 22 22 22 22 23 23 24 25 26 27 28 29 30 31 33 34 35 36 37 38 39 40 40 41 41 42 43 45 46 48 49 51 52
23 23 23 23 24 25 25 25 25 25 26 26 26 27 27 28 29 29 30 31 32 33 34 36 37 38 39 40 41 42 44 45 45 45 45 45 45 46 47 49 50 51 52
25 26 26 27 27 28 28 29 29 29 29 29 30 31 32 32 33 34 34 36 37 37 39 40 41 42 43 44 45 46 47 49 50 50 50 49 49 49 50 50 51 52 53
28 28 28 29 30 31 32 32 32 32 32 33 34 35 36 37 37 38 39 40 41 42 43 44 45 46 47 48 49 50 51 53 54 54 54 53 52 52 52 53 53 54 55
30 30 30 31 32 34 35 35 36 36 36 37 38 39 40 41 42 43 43 44 45 46 47 48 49 50 51 52 53 53 55 56 57 57 57 57 56 55 55 55 55 56 56
32 32 32 34 35 37 38 38 39 39 40 41 42 43 44 45 46 47 47 48 49 50 51 52 54 54 55 56 57 57 58 59 60 60 60 59 58 58 58 57 57 58 58
33 34 34 35 37 38 39 40 42 43 44 45 45 46 47 48 50 51 52 52 53 54 54 56 58 59 60 61 61 62 62 62 62 62 61 60 60 60 60 60 60 60 60
31 33 35 36 37 39 41 42 44 45 46 46 47 48 50 52 53 54 55 56 57 58 58 59 61 63 63 64 65 66 65 64 63 62 60 60 60 61 61 61 61 61 62
31 32 34 36 37 39 41 43 44 45 46 46 48 50 53 54 55 57 58 59 60 61 62 63 64 66 67 67 67 67 67 66 65 61 59 59 59 60 60 61 61 62 63
31 33 34 36 38 39 41 43 44 46 46 47 50 52 54 56 57 59 60 61 63 64 65 66 68 69 69 69 68 67 67 66 64 62 60 59 59 60 60 61 62 63 64
32 33 35 36 38 40 42 44 46 47 48 51 52 54 55 57 59 60 62 63 65 66 67 68 70 70 70 69 68 67 66 64 63 62 61 60 61 61 61 62 63 64 65
35 36 37 38 40 42 43 45 47 49 51 53 54 56 57 59 60 61 63 65 66 68 69 70 71 71 70 69 68 67 65 64 63 63 62 62 63 63 63 64 65 66 67

GEFSSE_500_meanwind_066.txt.gz
Wind_Speed
7 7 6 6 6 6 6 7 7 7 8 8 9 10 10 11 11 11 11 11 10 10 10 10 10 11 11 11 12 12 13 13 13 14 14 15 15 15 16 16 16 17 17
6 6 6 6 6 6 6 7 7 8 9 9 10 10 11 11 11 11 11 11 11 11 11 11 11 11 12 12 13 13 14 14 14 15 15 16 17 17 17 18 18 19 19
6 6 6 6 6 6 7 7 8 9 10 10 10 10 11 11 11 11 11 11 11 12 12 12 12 12 13 13 14 15 15 16 16 17 18 18 19 19 20 20 21 21 21
6 6 6 6 7 7 8 9 9 10 10 11 11 11 11 11 11 11 11 11 12 12 12 12 13 13 14 14 15 16 17 17 18 19 20 21 21 22 23 23 24 24 25
6 7 7 8 8 9 9 10 10 11 11 11 11 11 10 10 10 11 11 11 12 13 13 13 14 14 15 15 16 17 18 18 19 20 21 22 23 24 25 26 26 27 28
8 8 9 9 10 10 11 11 11 11 11 11 11 10 10 11 11 11 12 13 13 14 14 15 15 15 16 16 17 18 18 19 20 21 21 22 23 24 25 26 27 28 29
11 11 11 12 12 12 12 12 12 12 11 11 10 10 11 11 12 12 13 13 13 14 14 15 15 16 16 17 17 18 19 20 20 21 22 23 23 24 25 26 27 28 29
14 13 13 13 14 14 14 13 13 13 12 11 11 11 12 12 12 12 13 13 13 13 14 14 15 15 16 17 17 18 19 20 21 22 23 24 25 26 27 27 28 28 29
16 15 15 14 15 15 14 14 14 13 13 13 13 12 12 12 12 12 12 13 13 13 13 14 15 15 16 17 17 18 19 20 21 23 24 25 26 28 29 30 31 31 32
17 17 16 16 16 16 16 15 15 15 14 14 14 13 13 13 13 13 13 13 13 14 14 15 15 16 16 17 18 19 20 21 22 24 25 26 27 29 30 31 32 33 34
17 18 17 17 17 17 17 16 16 16 16 15 15 15 15 15 14 14 14 15 15 15 16 16 17 17 18 19 20 20 21 22 23 25 26 27 28 30 31 33 34 35 36
16 17 18 18 18 18 18 18 18 17 17 17 17 17 17 17 17 17 17 17 17 18 18 19 19 20 21 21 22 23 25 25 26 27 28 29 30 31 33 34 36 37 38
16 18 19 19 18 18 19 19 19 20 20 20 20 20 20 21 20 20 20 21 21 21 22 22 23 24 24 25 26 27 28 29 30 31 32 33 34 35 36 37 38 39 40
17 18 19 19 19 20 20 21 21 22 23 23 23 23 24 24 24 24 25 25 25 26 26 27 27 28 29 30 31 32 33 34 35 36 36 37 38 39 40 41 42 42 43
18 19 20 21 21 22 22 23 24 25 26 27 27 27 28 28 29 29 29 29 30 30 30 31 32 32 33 34 35 36 37 37 38 40 41 41 43 44 45 45 46 47 47
21 21 21 22 23 24 25 26 27 28 29 30 30 31 31 32 33 33 34 34 35 35 35 35 36 37 37 38 39 40 41 41 42 43 44 45 47 48 49 50 51 51 51
23 24 24 24 25 26 27 29 30 31 32 32 33 34 35 35 37 37 38 39 40 40 40 40 41 41 42 43 44 44 45 45 46 47 48 49 50 51 52 53 55 55 56
24 25 26 26 27 28 29 31 32 33 34 35 36 37 38 39 41 41 42 43 44 45 45 45 45 46 47 47 48 49 49 49 50 51 52 53 54 55 56 57 58 59 59
25 26 27 28 29 30 31 32 33 35 36 37 39 40 42 44 45 46 46 47 48 49 49 50 50 51 51 52 53 53 53 53 54 55 55 57 57 58 59 60 61 61 61
24 25 27 28 29 31 32 33 35 36 38 39 41 42 44 46 47 49 49 50 52 53 53 54 55 55 55 57 58 57 57 57 58 58 59 60 60 61 62 62 63 63 63
24 25 27 28 30 31 33 34 35 36 38 39 41 43 44 46 48 50 51 53 54 55 56 57 58 58 59 61 61 61 60 61 60 61 62 63 63 63 63 64 64 64 64
25 26 27 29 30 32 34 35 36 37 38 39 41 43 45 48 50 52 53 55 56 57 58 59 60 61 62 63 64 65 64 63 62 64 65 65 65 65 65 65 65 65 64
27 28 29 30 31 33 34 36 37 39 40 41 43 45 47 49 51 52 54 56 57 59 60 61 62 64 64 65 66 67 67 66 66 65 65 65 66 66 66 66 66 65 64
29 30 31 32 33 35 36 37 38 40 41 43 45 46 48 50 51 53 55 57 58 60 61 62 64 66 67 67 68 68 69 70 70 69 66 66 66 66 66 66 66 65 65
31 32 33 34 34 35 36 38 39 41 42 44 46 48 49 51 53 54 56 58 60 61 62 64 66 67 68 69 69 70 70 71 71 71 69 67 67 66 66 66 65 65 65
33 34 34 35 36 37 38 39 41 42 44 45 47 49 50 52 54 56 58 60 61 63 64 65 67 68 69 69 70 71 71 71 71 72 72 70 68 67 67 66 65 64 64

GEFSSE_500_meanwind_072.txt.gz
Wind_Speed
13 13 13 13 13 13 12 12 12 12 12 11 11 11 11 11 11 11 11 11 11 12 12 13 13 13 14 14 14 14 15 15 15 15 16 16 16 16 16 17 17 17 18
12 12 12 12 12 12 12 11 11 12 12 12 12 12 12 12 12 11 11 11 11 11 11 12 12 13 13 14 14 15 15 16 16 17 17 17 17 18 18 18 19 19 19
10 11 11 11 11 11 11 11 12 12 13 13 13 13 13 12 12 12 11 11 11 11 12 12 12 13 13 14 14 15 15 16 17 17 18 18 18 19 19 19 20 20 21
9 10 10 11 11 11 11 12 12 13 13 14 14 14 13 13 12 12 11 11 11 11 11 12 12 13 13 14 14 15 16 16 17 18 19 19 20 21 21 22 22 22 23
9 10 11 11 12 12 13 13 14 14 14 14 14 14 13 13 12 12 11 11 11 11 12 12 12 13 13 14 15 15 16 17 17 18 19 20 21 22 22 23 24 25 25
10 11 11 12 13 13 14 14 15 15 15 15 14 14 13 12 12 12 12 12 12 12 12 13 13 14 14 15 15 16 16 17 18 19 19 20 21 22 22 23 24 25 26
12 13 13 14 14 15 15 16 16 16 15 15 14 14 13 13 12 12 12 12 12 13 13 14 14 14 15 15 16 16 17 18 18 19 19 20 21 22 23 24 25 25 26
14 15 15 16 16 17 17 17 17 17 17 16 15 15 14 14 13 13 13 13 13 14 14 14 14 15 15 15 16 16 17 17 18 18 19 20 21 22 23 24 25 26 27
16 16 17 17 18 18 18 18 18 18 18 17 16 16 16 15 15 15 15 14 14 15 15 15 15 15 15 15 16 16 16 17 17 18 18 19 20 21 22 23 24 26 27
17 18 18 18 19 20 20 20 20 20 19 18 18 18 17 17 17 17 16 16 16 16 16 16 16 16 17 17 17 17 17 18 18 18 19 20 20 21 22 23 24 25 26
18 18 19 19 20 21 21 21 21 21 21 20 20 19 19 19 19 19 19 19 19 19 19 19 19 19 19 19 20 20 20 21 21 22 22 23 23 24 25 26 27 27 28
18 19 19 20 20 21 21 22 22 22 22 22 22 22 22 22 22 22 22 22 22 22 22 23 23 23 23 23 23 24 24 25 25 26 26 27 28 29 29 30 31 31 32
20 20 20 21 21 22 22 23 23 23 23 24 24 24 25 25 25 26 26 26 26 27 27 27 27 27 27 28 28 29 29 29 30 30 31 31 32 33 33 34 35 36 36
21 21 21 21 22 23 23 24 24 25 26 26 27 27 28 28 29 29 30 30 30 31 31 32 32 32 32 33 33 34 34 34 34 35 35 35 36 37 38 38 39 40 40
22 22 22 23 23 24 24 25 26 27 28 29 29 30 31 31 32 33 33 34 35 35 36 36 37 37 37 37 38 39 39 39 39 39 40 40 40 41 42 43 44 44 45
22 23 23 24 25 25 26 27 29 30 30 31 32 33 33 34 35 36 37 38 39 40 41 41 41 42 42 43 43 44 44 44 44 44 44 45 45 46 47 47 48 48 49
23 23 24 25 26 27 28 29 30 31 32 33 34 35 36 37 38 39 40 41 43 44 44 45 46 46 47 48 48 49 49 49 49 49 49 50 50 50 51 51 52 52 52
23 23 24 25 26 27 28 29 30 31 32 34 35 36 38 39 41 42 43 44 46 47 48 48 49 50 51 52 53 54 54 53 53 53 54 54 54 54 55 55 55 56 56
23 24 24 25 26 27 28 29 30 31 33 34 36 37 39 41 42 43 44 45 47 49 50 51 51 53 54 55 56 57 57 57 57 57 57 57 57 58 58 58 59 58 59
25 25 26 27 27 28 29 30 31 32 33 35 36 38 39 41 42 43 44 46 48 49 50 52 53 54 55 56 58 58 58 59 59 59 58 59 60 60 61 61 61 61 61
26 27 28 28 29 29 30 31 32 33 34 35 37 39 40 42 43 44 45 46 48 49 51 52 54 55 55 57 59 59 59 60 60 60 60 61 61 62 63 63 63 64 64
28 29 29 30 31 31 32 32 33 34 35 36 38 39 41 42 43 45 46 47 48 50 51 53 54 56 57 58 60 61 61 60 60 61 62 63 63 64 64 65 66 66 67
30 32 32 33 33 33 33 34 34 35 36 37 38 39 40 41 43 44 46 48 49 51 52 54 55 57 58 59 61 63 63 62 61 62 63 64 65 65 66 67 68 69 69
33 33 34 34 34 34 34 34 34 35 36 37 38 40 41 43 44 45 47 49 50 52 53 55 57 58 60 61 62 64 65 66 66 65 63 65 66 67 68 69 70 71 71
32 32 32 31 31 32 32 32 33 34 35 36 38 39 40 41 43 44 46 47 49 51 53 55 57 59 61 63 64 66 67 68 69 70 67 66 67 68 69 70 71 72 72
31 30 30 30 30 31 32 32 33 34 35 36 37 38 40 41 43 45 47 49 50 52 54 56 58 60 61 63 65 67 68 69 70 72 72 70 70 69 70 71 72 72 72

GEFSSE_500_meanwind_078.txt.gz
Wind_Speed
13 14 14 14 15 15 16 16 16 16 17 17 17 17 17 17 17 17 17 17 17 17 17 17 17 17 17 17 17 17 18 18 17 17 17 17 18 18 18 18 18 18 18
14 14 14 14 15 16 16 17 17 17 17 17 17 17 17 17 17 17 18 18 18 18 18 18 18 18 18 18 18 18 18 18 18 18 18 18 19 19 19 19 20 20 20
15 15 15 15 15 16 16 16 16 17 17 17 17 17 17 17 18 18 18 18 18 19 18 18 18 18 18 18 18 17 18 18 18 18 18 18 19 19 20 20 20 21 21
15 14 14 15 15 15 15 16 16 16 17 17 17 18 18 18 18 19 19 19 19 19 18 18 18 18 18 17 18 18 18 18 18 18 18 18 19 19 20 20 21 21 22
14 14 14 14 15 15 16 16 16 17 17 17 18 18 18 18 19 19 19 19 19 19 18 18 18 18 18 18 18 18 18 18 18 18 19 19 19 20 20 20 21 22 22
14 14 14 15 15 16 16 17 17 17 18 18 18 18 19 18 18 18 18 18 18 18 18 18 18 18 18 18 18 18 18 18 19 19 20 20 20 20 21 21 21 22 23
15 15 15 16 16 17 17 18 18 18 19 19 19 19 19 19 19 18 18 18 18 18 18 18 19 19 19 19 19 19 19 19 19 20 20 20 21 21 21 22 22 23 23
16 16 17 17 18 18 19 19 19 20 20 20 20 20 20 20 19 19 19 19 19 19 19 19 19 19 19 19 19 19 19 19 19 20 20 20 21 21 21 22 22 23 23
18 18 18 19 20 20 20 21 21 21 21 21 21 21 21 21 20 20 20 20 20 20 20 20 20 20 19 20 20 19 19 20 20 20 20 20 20 21 21 21 21 22 22
19 20 20 20 21 21 22 22 23 23 23 23 23 22 22 22 22 22 22 22 22 22 21 21 21 21 21 21 21 21 21 21 21 21 21 21 21 21 22 22 23 23 24
19 20 21 21 22 22 23 23 24 24 24 24 24 24 24 24 24 24 24 24 24 24 23 23 23 23 23 23 23 23 23 23 23 23 24 24 24 24 25 25 26 26 27
19 20 21 22 23 23 24 24 25 25 26 26 26 25 25 25 26 26 26 26 26 26 26 26 26 26 26 26 26 26 26 27 27 27 27 27 28 28 28 29 29 30 30
20 21 22 23 24 24 25 25 26 26 27 27 27 27 27 27 28 28 28 29 29 29 30 30 30 30 30 30 30 31 31 31 31 31 31 31 32 32 32 33 33 33 34
21 22 22 23 24 24 25 26 27 27 28 28 28 29 29 30 30 31 31 32 32 32 33 34 34 34 34 34 35 35 35 36 36 36 36 36 36 36 37 37 37 38 38
23 23 23 23 24 25 26 27 27 28 28 29 30 30 31 32 32 33 34 34 35 36 36 37 37 38 38 39 39 40 41 41 41 41 41 41 41 41 42 42 42 43 43
23 23 23 23 24 25 26 27 27 28 29 30 30 31 32 33 34 34 35 36 37 38 39 39 40 41 41 42 43 44 45 45 46 46 46 46 46 46 47 47 47 47 47
22 22 22 23 23 23 24 25 26 27 28 29 30 31 32 33 34 35 35 36 38 39 39 40 41 42 43 44 46 47 48 49 49 50 50 50 50 51 51 52 52 52 52
20 21 21 22 22 23 24 25 26 27 28 29 30 31 32 33 34 35 36 37 38 39 40 41 42 43 44 46 47 49 50 51 51 52 53 53 53 54 54 55 55 56 56
20 20 21 22 23 23 24 25 26 27 28 29 30 32 33 34 35 36 36 37 39 39 40 41 42 44 45 46 48 49 50 51 52 54 54 55 55 56 57 57 58 59 59
20 21 22 23 24 24 25 26 27 28 29 31 32 33 33 34 35 36 36 38 39 39 41 42 43 44 45 47 48 49 50 52 53 54 55 56 57 57 58 59 60 60 61
21 22 23 25 26 27 28 29 30 31 32 33 33 34 35 35 36 36 37 38 39 40 41 43 44 45 46 48 49 50 51 52 53 53 55 56 57 58 59 60 61 62 63
24 25 26 27 28 29 30 31 32 32 32 33 33 33 34 34 34 35 36 37 38 39 41 43 44 45 46 48 49 51 51 51 52 53 55 57 58 59 60 61 62 63 64
26 27 28 29 30 30 31 31 31 30 30 31 31 32 32 33 34 35 36 38 39 40 41 43 45 46 47 49 51 53 54 54 54 54 55 57 59 61 62 64 65 66 66
28 29 30 30 31 31 30 30 30 30 30 31 31 32 33 34 35 36 37 38 40 41 43 45 47 48 50 52 54 55 57 59 60 58 58 58 60 62 64 65 66 67 68
29 30 30 31 31 30 30 30 30 30 31 32 33 33 34 35 37 38 39 41 43 45 46 48 51 53 54 56 58 60 61 64 65 67 65 65 65 65 66 68 69 70 71
30 30 30 30 30 30 30 30 31 31 32 33 34 35 36 37 39 41 43 44 46 48 51 53 55 57 60 62 64 66 68 69 70 72 73 72 72 72 72 72 72 73 74

GEFSSE_500_meanwind_084.txt.gz
Wind_Speed
11 12 13 14 14 15 15 16 16 16 17 17 18 18 18 19 19 19 19 19 19 19 19 20 19 19 19 19 19 19 19 18 18 18 18 18 17 17 17 17 17 16 16
11 12 13 14 15 16 16 16 17 17 18 18 19 19 19 20 20 20 20 20 20 20 20 20 20 20 20 20 19 19 19 19 18 18 18 18 17 17 17 17 17 17 17
12 13 14 15 15 16 17 17 18 18 19 19 20 20 20 20 20 20 20 20 20 20 20 20 20 20 20 20 20 19 19 18 18 17 17 17 17 18 17 17 17 17 17
12 13 14 15 15 16 17 17 18 18 19 19 20 20 20 20 20 20 20 20 20 20 20 20 20 20 20 20 20 19 19 18 18 18 18 18 18 17 17 17 17 17 17
12 13 14 14 15 16 17 17 18 18 19 19 20 20 20 20 20 20 20 20 20 20 20 20 20 20 20 20 19 19 19 18 18 18 18 18 18 18 18 18 18 18 18
12 13 14 14 15 16 17 18 18 19 19 19 20 20 20 20 20 20 20 20 20 20 20 20 20 20 19 19 19 19 19 19 19 19 18 18 18 18 18 18 18 19 19
13 14 15 15 16 17 17 18 19 19 19 20 20 20 20 20 20 20 20 20 20 19 19 19 19 19 19 19 20 20 20 19 19 19 19 19 19 19 19 19 19 19 19
14 15 16 16 17 18 19 19 19 20 20 20 21 21 21 21 21 21 20 20 20 20 20 19 19 20 20 20 20 20 20 20 19 19 19 19 19 19 19 18 18 18 18
15 16 17 18 19 20 20 21 21 21 21 21 22 22 22 22 22 22 21 21 21 20 20 20 20 20 21 21 21 21 20 20 20 20 20 20 19 19 19 19 19 19 19
17 17 18 20 20 21 22 22 22 23 23 23 23 23 23 23 23 22 22 22 22 21 22 22 22 22 22 22 22 21 21 21 21 21 21 21 21 21 21 21 21 21 21
17 18 19 20 21 22 22 23 24 24 24 24 24 24 24 24 24 24 24 23 23 23 23 23 23 23 23 23 23 23 23 23 23 23 23 23 23 23 24 24 24 24 24
18 19 20 20 22 22 23 24 25 25 26 26 26 26 26 26 25 25 25 25 25 25 25 25 26 26 26 26 26 26 27 27 27 27 27 27 27 27 27 27 27 28 28
21 22 22 22 22 23 24 25 25 26 26 27 27 27 27 27 27 27 27 27 27 27 27 28 28 29 29 29 30 30 30 31 31 31 31 31 31 31 31 31 32 32 33
23 23 24 24 24 24 25 25 26 26 27 27 27 27 28 28 28 28 28 28 29 29 30 30 30 31 32 32 33 33 34 34 35 35 35 36 36 36 36 37 37 38 38
23 24 24 25 25 25 25 25 25 26 26 27 27 27 28 28 28 29 29 29 29 30 31 32 32 33 34 35 36 37 38 38 39 39 39 40 41 41 42 42 43 44 44
23 23 23 23 24 24 24 24 24 25 25 26 26 27 27 28 28 28 29 29 30 31 31 32 33 34 35 36 37 39 40 41 41 42 43 44 45 46 47 47 48 49 49
22 22 22 22 22 23 23 24 24 24 25 25 26 27 28 28 29 29 29 30 31 32 32 33 34 36 37 38 39 40 41 42 43 44 45 46 47 48 50 51 52 53 54
21 21 21 22 22 23 23 23 24 24 25 25 26 27 28 29 29 30 30 31 32 33 33 34 35 36 37 38 39 40 41 42 43 44 45 47 48 49 50 52 53 55 56
21 21 21 21 22 22 23 24 25 26 27 27 28 29 30 31 31 32 32 33 34 34 34 35 36 37 37 38 39 40 41 42 43 44 45 46 48 49 50 51 53 55 56
21 21 21 22 22 23 24 26 27 28 29 29 30 31 32 32 33 33 33 34 34 34 34 35 36 36 37 38 39 39 40 41 42 44 45 46 47 48 50 51 52 54 55
21 21 22 22 23 24 26 27 28 28 29 30 30 31 31 32 32 32 32 32 33 33 34 35 36 36 37 39 40 40 40 41 43 44 45 46 47 49 50 52 53 54 56
21 22 23 23 24 26 26 27 28 29 29 30 30 31 31 31 31 31 32 32 33 34 35 36 38 38 39 41 42 43 42 42 44 46 47 48 49 51 52 54 56 57 58
22 23 23 24 26 27 27 28 29 29 30 30 30 31 31 31 31 32 33 34 35 36 37 38 40 41 42 43 45 47 48 47 47 47 50 52 53 54 55 57 58 60 62
23 24 25 26 27 28 29 30 30 30 31 31 31 31 32 32 33 34 35 36 37 38 39 41 42 43 45 46 48 50 52 53 54 53 52 54 57 59 61 62 63 64 66
24 25 26 28 29 30 30 31 32 32 32 32 33 33 34 34 35 36 37 38 39 40 42 44 45 47 49 50 52 54 56 58 60 62 61 60 61 63 65 68 69 70 71
25 27 28 29 31 31 32 33 33 34 34 34 34 35 36 36 37 38 39 41 42 44 45 47 49 51 53 55 57 58 61 62 64 67 69 68 69 69 70 72 74 76 77

GEFSSE_500_meanwind_090.txt.gz
Wind_Speed
9 9 9 9 10 10 11 11 12 13 13 14 14 15 15 16 17 17 18 18 18 18 18 18 18 18 18 18 18 17 17 17 17 17 17 16 16 16 16 15 15 14 14
8 9 10 10 10 11 12 12 13 13 14 15 15 16 17 18 18 19 19 20 20 20 20 20 19 19 19 19 19 18 18 18 18 18 17 17 17 17 16 16 16 15 15
9 9 10 10 11 11 11 12 12 13 14 15 16 16 17 18 19 19 20 20 20 20 20 20 20 20 20 19 19 19 18 19 18 18 18 18 17 17 17 17 17 16 16
9 9 10 10 11 11 12 12 13 13 14 15 16 17 17 18 19 19 20 20 20 21 21 21 21 20 20 20 19 19 19 19 19 18 18 18 18 18 18 18 18 17 17
9 10 10 10 11 11 12 13 13 14 15 16 16 17 17 18 19 19 19 20 20 21 21 21 21 21 21 20 20 19 19 19 19 19 19 19 19 19 18 18 18 18 18
11 11 12 12 12 12 13 13 14 15 15 16 16 17 18 18 18 19 19 20 20 20 21 21 21 21 21 21 20 20 20 20 20 20 20 19 19 19 19 19 19 19 19
11 11 12 13 13 13 14 14 15 15 16 16 17 18 18 18 19 19 20 20 20 21 21 21 21 21 21 21 21 21 20 21 21 21 21 21 20 20 20 20 20 20 20
11 11 11 12 13 13 14 14 15 16 16 17 17 18 18 19 20 20 21 21 21 22 22 22 22 22 22 22 22 22 22 22 22 22 22 22 22 21 21 21 21 21 21
12 12 12 12 13 14 15 15 16 16 17 18 18 19 20 20 21 21 22 22 22 23 23 23 23 23 23 23 23 23 23 23 24 24 23 23 23 23 23 23 23 23 22
12 13 13 14 15 15 16 17 17 18 19 19 20 20 21 22 22 23 23 23 24 24 24 24 25 25 25 25 25 25 25 25 25 26 26 26 26 25 25 25 25 25 25
14 15 15 16 17 18 18 19 19 20 20 21 22 22 23 23 24 24 25 25 25 26 26 26 27 27 27 27 28 28 28 28 28 28 29 28 28 28 28 28 28 28 28
16 17 18 18 19 20 20 21 21 22 22 23 23 24 24 25 25 26 26 27 27 27 28 28 28 29 29 29 30 30 31 31 31 31 32 32 32 32 32 32 32 32 33
17 19 20 21 21 22 22 22 23 23 24 24 25 25 25 26 26 27 27 28 28 29 29 29 30 30 31 31 32 32 33 34 34 34 35 35 36 36 36 37 37 37 37
19 20 21 22 23 23 23 23 24 24 25 25 25 25 25 26 27 27 28 28 29 29 30 30 30 31 31 32 33 33 34 35 36 36 37 38 39 39 40 40 41 41 42
22 22 22 22 23 23 23 24 24 24 24 25 25 25 25 26 27 27 28 28 29 29 30 30 31 31 32 33 33 34 35 36 36 37 38 39 40 41 42 43 43 44 45
23 23 23 23 23 24 24 24 24 24 25 25 25 26 26 27 27 28 28 29 30 30 31 31 32 33 33 34 34 35 36 36 37 38 39 40 41 42 43 44 45 46 47
24 24 23 23 23 24 24 24 25 25 26 26 27 27 27 28 28 29 30 30 31 31 31 32 33 33 34 35 35 36 36 37 38 39 40 41 42 43 44 45 46 47 48
24 24 24 24 24 24 24 25 26 26 26 27 27 28 29 29 30 31 31 32 32 33 33 34 34 34 35 36 36 36 36 37 38 39 40 41 42 43 44 46 47 48 49
24 24 24 24 24 25 25 26 26 26 27 28 28 29 30 30 31 32 32 33 33 34 34 35 35 35 36 36 36 35 36 37 37 39 40 41 42 43 44 45 46 47 48
24 24 24 24 25 25 26 26 26 27 28 29 29 30 30 31 32 32 32 33 33 33 34 34 34 35 35 35 35 35 35 36 38 39 40 41 42 43 44 45 47 48 49
24 24 24 24 25 25 26 26 27 28 28 29 30 31 31 32 32 33 33 33 34 34 34 34 34 35 36 36 36 37 37 38 40 41 42 43 44 45 46 47 48 50 51
25 24 24 25 25 26 26 27 28 28 29 30 31 32 32 33 33 34 34 34 34 34 35 35 36 37 38 39 40 40 39 39 41 42 43 45 46 47 49 50 51 52 54
24 24 25 25 26 26 27 28 29 29 30 31 32 33 33 34 34 35 35 36 36 37 37 38 39 40 40 42 43 43 43 42 42 43 45 47 49 50 52 53 54 56 57
25 25 25 26 26 27 27 29 29 30 31 33 34 34 35 35 36 37 37 38 38 39 40 41 42 43 43 44 45 47 48 48 48 46 46 48 50 52 54 56 58 60 61
25 26 26 27 27 28 29 30 31 32 33 34 35 36 37 37 38 39 39 40 41 42 42 43 44 45 46 46 47 49 50 52 54 54 52 52 53 55 57 59 62 64 66
26 27 27 28 29 30 30 31 32 33 35 36 37 38 39 40 40 41 42 42 43 44 44 45 46 47 48 49 50 52 53 55 57 59 60 59 59 59 61 63 65 67 70